When you browse on this site, cookies collect data to enhance your experience and personalize the content and advertising you see.
Visit our Privacy Policy to learn more. By continuing to use the site, you agree to this use of cookies and data.
  • In Österreich
  • Länderverzeichnis
  • Für 7 Tage
  • Wassertemperatur
  • Satellitenkarten
  • Wetterkarte
  • News
  • Widgets
  • user-avatar
    Anmelden

    Stündliche Wetter Kolno

    Heute, 16 Juli, Dienstag

    Zeit Temperatur Niederschläge Wind Luftdruck Luftfeuchtigkeit
    00:00 +13°C° 0 mm 1 m/S 746 mmHg 92%
    01:00 +13°C° 0 mm 1 m/S 746 mmHg 92%
    02:00 +12°C° 0 mm 1 m/S 747 mmHg 92%
    03:00 +12°C° 0 mm 1 m/S 746 mmHg 92%
    04:00 +12°C° 0 mm 1 m/S 746 mmHg 91%
    05:00 +12°C° 0 mm 1 m/S 746 mmHg 91%
    06:00 +14°C° 0 mm 1 m/S 746 mmHg 85%
    07:00 +16°C° 0 mm 1 m/S 746 mmHg 78%
    08:00 +19°C° 0 mm 1 m/S 746 mmHg 72%
    09:00 +21°C° 0.1 mm 1 m/S 746 mmHg 65%
    10:00 +21°C° 0.1 mm 2 m/S 746 mmHg 59%
    11:00 +24°C° 0.1 mm 2 m/S 745 mmHg 52%
    12:00 +24°C° 0 mm 2 m/S 745 mmHg 52%
    13:00 +24°C° 0 mm 2 m/S 745 mmHg 51%
    14:00 +25°C° 0 mm 2 m/S 744 mmHg 50%
    15:00 +24°C° 0.3 mm 2 m/S 744 mmHg 55%
    16:00 +22°C° 0.3 mm 3 m/S 744 mmHg 61%
    17:00 +22°C° 0.3 mm 3 m/S 744 mmHg 66%
    18:00 +20°C° 0.3 mm 2 m/S 744 mmHg 73%
    19:00 +19°C° 0.3 mm 2 m/S 744 mmHg 80%
    20:00 +17°C° 0.3 mm 2 m/S 744 mmHg 87%
    21:00 +16°C° 0.3 mm 2 m/S 744 mmHg 90%
    22:00 +16°C° 0.3 mm 3 m/S 744 mmHg 92%
    23:00 +14°C° 0.3 mm 3 m/S 744 mmHg 94%

    Morgen, 17 Juli, Mittwoch

    Zeit Temperatur Niederschläge Wind Luftdruck Luftfeuchtigkeit
    00:00 +13°C° 0.1 mm 3 m/S 744 mmHg 94%
    01:00 +12°C° 0.1 mm 3 m/S 744 mmHg 94%
    02:00 +11°C° 0.1 mm 3 m/S 744 mmHg 95%
    03:00 +11°C° 0 mm 3 m/S 743 mmHg 96%
    04:00 +10°C° 0 mm 2 m/S 743 mmHg 97%
    05:00 +10°C° 0 mm 2 m/S 743 mmHg 97%
    06:00 +11°C° 0 mm 3 m/S 743 mmHg 95%
    07:00 +12°C° 0 mm 3 m/S 743 mmHg 92%
    08:00 +13°C° 0 mm 3 m/S 744 mmHg 89%
    09:00 +14°C° 0.4 mm 3 m/S 743 mmHg 85%
    10:00 +17°C° 0.4 mm 3 m/S 743 mmHg 80%
    11:00 +18°C° 0.4 mm 4 m/S 743 mmHg 75%
    12:00 +18°C° 0.4 mm 4 m/S 743 mmHg 72%
    13:00 +18°C° 0.4 mm 4 m/S 743 mmHg 68%
    14:00 +19°C° 0.4 mm 4 m/S 743 mmHg 64%
    15:00 +19°C° 0.5 mm 4 m/S 742 mmHg 68%
    16:00 +18°C° 0.5 mm 4 m/S 742 mmHg 73%
    17:00 +18°C° 0.5 mm 3 m/S 742 mmHg 78%
    18:00 +17°C° 0.6 mm 3 m/S 742 mmHg 82%
    19:00 +16°C° 0.6 mm 3 m/S 742 mmHg 87%
    20:00 +14°C° 0.6 mm 3 m/S 742 mmHg 92%
    21:00 +13°C° 0 mm 3 m/S 742 mmHg 93%
    22:00 +12°C° 0 mm 3 m/S 742 mmHg 95%
    23:00 +12°C° 0 mm 3 m/S 743 mmHg 96%

    übermorgen, 18 Juli, Donnerstag

    Zeit Temperatur Niederschläge Wind Luftdruck Luftfeuchtigkeit
    00:00 +11°C° 0 mm 3 m/S 743 mmHg 97%
    01:00 +11°C° 0 mm 3 m/S 743 mmHg 97%
    02:00 +11°C° 0 mm 3 m/S 743 mmHg 97%
    03:00 +11°C° 0 mm 3 m/S 743 mmHg 98%
    04:00 +10°C° 0 mm 3 m/S 743 mmHg 98%
    05:00 +10°C° 0 mm 3 m/S 743 mmHg 99%
    06:00 +11°C° 0 mm 3 m/S 743 mmHg 97%
    07:00 +12°C° 0 mm 3 m/S 743 mmHg 95%
    08:00 +13°C° 0 mm 4 m/S 743 mmHg 93%
    09:00 +14°C° 0 mm 4 m/S 744 mmHg 90%
    10:00 +15°C° 0 mm 4 m/S 744 mmHg 86%
    11:00 +16°C° 0 mm 5 m/S 744 mmHg 82%
    12:00 +16°C° 0 mm 5 m/S 744 mmHg 79%
    13:00 +17°C° 0 mm 5 m/S 744 mmHg 76%
    14:00 +19°C° 0 mm 5 m/S 744 mmHg 73%
    15:00 +20°C° 0 mm 5 m/S 744 mmHg 72%
    16:00 +20°C° 0 mm 5 m/S 744 mmHg 72%
    17:00 +20°C° 0 mm 5 m/S 744 mmHg 71%
    18:00 +19°C° 0.3 mm 4 m/S 744 mmHg 78%
    19:00 +18°C° 0.3 mm 3 m/S 745 mmHg 85%
    20:00 +17°C° 0.3 mm 3 m/S 745 mmHg 92%
    21:00 +17°C° 0 mm 3 m/S 745 mmHg 94%
    22:00 +16°C° 0 mm 3 m/S 745 mmHg 95%
    23:00 +14°C° 0 mm 3 m/S 746 mmHg 97%

    19 Juli, Freitag

    Zeit Temperatur Niederschläge Wind Luftdruck Luftfeuchtigkeit
    00:00 +14°C° 0 mm 3 m/S 746 mmHg 97%
    01:00 +14°C° 0 mm 3 m/S 746 mmHg 97%
    02:00 +13°C° 0 mm 3 m/S 746 mmHg 97%
    03:00 +13°C° 0 mm 3 m/S 746 mmHg 97%
    04:00 +13°C° 0 mm 3 m/S 747 mmHg 97%
    05:00 +12°C° 0 mm 3 m/S 747 mmHg 97%
    06:00 +14°C° 0 mm 3 m/S 747 mmHg 92%
    07:00 +16°C° 0 mm 3 m/S 747 mmHg 88%
    08:00 +18°C° 0 mm 3 m/S 748 mmHg 83%
    09:00 +19°C° 0 mm 3 m/S 748 mmHg 74%
    10:00 +21°C° 0 mm 4 m/S 748 mmHg 65%
    11:00 +23°C° 0 mm 4 m/S 748 mmHg 57%
    12:00 +23°C° 0.1 mm 4 m/S 748 mmHg 56%
    13:00 +25°C° 0.1 mm 4 m/S 748 mmHg 55%
    14:00 +25°C° 0.1 mm 4 m/S 748 mmHg 54%
    15:00 +25°C° 0 mm 4 m/S 748 mmHg 55%
    16:00 +25°C° 0 mm 4 m/S 748 mmHg 56%
    17:00 +25°C° 0 mm 4 m/S 748 mmHg 57%
    18:00 +22°C° 0 mm 3 m/S 748 mmHg 65%
    19:00 +20°C° 0 mm 2 m/S 749 mmHg 73%
    20:00 +18°C° 0 mm 2 m/S 749 mmHg 82%
    21:00 +18°C° 0 mm 2 m/S 749 mmHg 84%
    22:00 +18°C° 0 mm 1 m/S 749 mmHg 86%
    23:00 +16°C° 0 mm 1 m/S 750 mmHg 88%

    20 Juli, Samstag

    Zeit Temperatur Niederschläge Wind Luftdruck Luftfeuchtigkeit
    00:00 +15°C° 0 mm 1 m/S 750 mmHg 88%
    01:00 +15°C° 0 mm 1 m/S 750 mmHg 88%
    02:00 +14°C° 0 mm 1 m/S 750 mmHg 88%
    03:00 +14°C° 0 mm 1 m/S 750 mmHg 87%
    04:00 +14°C° 0 mm 1 m/S 750 mmHg 87%
    05:00 +14°C° 0 mm 1 m/S 750 mmHg 86%
    06:00 +16°C° 0 mm 1 m/S 750 mmHg 79%
    07:00 +19°C° 0 mm 1 m/S 750 mmHg 71%
    08:00 +22°C° 0 mm 1 m/S 750 mmHg 64%
    09:00 +23°C° 0 mm 1 m/S 751 mmHg 60%
    10:00 +25°C° 0 mm 1 m/S 751 mmHg 55%
    11:00 +27°C° 0 mm 1 m/S 751 mmHg 51%
    12:00 +27°C° 0.1 mm 1 m/S 750 mmHg 52%
    13:00 +26°C° 0.1 mm 1 m/S 750 mmHg 54%
    14:00 +26°C° 0.1 mm 1 m/S 750 mmHg 56%
    15:00 +25°C° 0.1 mm 2 m/S 750 mmHg 62%
    16:00 +24°C° 0.1 mm 2 m/S 750 mmHg 69%
    17:00 +23°C° 0.1 mm 2 m/S 750 mmHg 75%
    18:00 +21°C° 0.2 mm 2 m/S 750 mmHg 80%
    19:00 +20°C° 0.2 mm 2 m/S 750 mmHg 85%
    20:00 +19°C° 0.2 mm 1 m/S 750 mmHg 90%
    21:00 +19°C° 0 mm 1 m/S 750 mmHg 91%
    22:00 +18°C° 0 mm 1 m/S 750 mmHg 92%
    23:00 +15°C° 0 mm 0 m/S 751 mmHg 93%

    21 Juli, Sonntag

    Zeit Temperatur Niederschläge Wind Luftdruck Luftfeuchtigkeit
    00:00 +15°C° 0 mm 0 m/S 751 mmHg 93%
    01:00 +15°C° 0 mm 0 m/S 751 mmHg 93%
    02:00 +14°C° 0 mm 0 m/S 751 mmHg 93%
    03:00 +14°C° 0 mm 0 m/S 751 mmHg 94%
    04:00 +14°C° 0 mm 0 m/S 751 mmHg 94%
    05:00 +14°C° 0 mm 0 m/S 751 mmHg 94%
    06:00 +16°C° 0 mm 0 m/S 751 mmHg 88%
    07:00 +18°C° 0 mm 0 m/S 751 mmHg 82%
    08:00 +20°C° 0 mm 0 m/S 751 mmHg 77%
    09:00 +22°C° 0.6 mm 0 m/S 751 mmHg 73%
    10:00 +23°C° 0.6 mm 0 m/S 751 mmHg 69%
    11:00 +24°C° 0.6 mm 0 m/S 751 mmHg 66%
    12:00 +25°C° 0.4 mm 0 m/S 751 mmHg 61%
    13:00 +26°C° 0.4 mm 0 m/S 751 mmHg 57%
    14:00 +26°C° 0.4 mm 0 m/S 751 mmHg 52%
    15:00 +26°C° 0 mm 0 m/S 751 mmHg 53%
    16:00 +26°C° 0 mm 0 m/S 750 mmHg 54%
    17:00 +25°C° 0 mm 0 m/S 750 mmHg 54%
    18:00 +23°C° 0.1 mm 0 m/S 750 mmHg 62%
    19:00 +23°C° 0.1 mm 1 m/S 750 mmHg 71%
    20:00 +21°C° 0.1 mm 1 m/S 750 mmHg 79%
    21:00 +21°C° 0.2 mm 1 m/S 750 mmHg 81%
    22:00 +20°C° 0.2 mm 1 m/S 750 mmHg 82%
    23:00 +18°C° 0.2 mm 0 m/S 750 mmHg 84%
    Mehr zeigen